Voltar ao catálogo

STARLINK-31285

AtivoComunicaçõesVLEO
NORAD 59244·PAYLOAD·🇺🇸 United States

Lançado Mar 16, 2024 de Cape Canaveral Space Force Station

Loading…

Próximas Passagens (próximas 24 horas)

TLE

AtualizadoSource: CelesTrak SupGP

Época: Sep 15, 2026, 03:12 UTC

1 59244C 24049P   26258.13381944  .00041051  00000+0  14870-2 0  2589
2 59244  42.9998 153.3710 0001276 273.7419  42.1461 15.27553934    19

Acompanhe STARLINK-31285 em tempo real com AllMySat

Download on the App Store